Location: Nantong Television Tower
(32.0188°N, 120.8512°E)
Time: 21:41:46
(UTC+08:00)

Vanguard 3 - Visible Passes

Search period start: 25 March 2017 00:00
Search period end: 04 April 2017 00:00
Orbit: 508 x 3265 km, 33.3° (Epoch: 23 March)

Date Brightness Start Highest point End Pass type
(mag) Time Alt. Az. Time Alt. Az. Time Alt. Az.
25 Mar 7.6 19:50:22 10° WSW 20:00:19 75° SSE 20:02:10 49° E visible
25 Mar 10.0 22:06:07 10° W 22:06:48 13° W 22:06:48 13° W visible
26 Mar 8.6 18:34:03 10° SW 18:46:13 58° SSE 18:52:56 10° E visible
26 Mar 7.9 20:50:23 10° W 20:57:33 59° W 20:57:33 59° W visible
27 Mar 7.9 19:33:57 10° WSW 19:44:59 83° SSE 19:48:17 33° E visible
27 Mar 9.6 21:50:19 10° W 21:52:54 21° W 21:52:54 21° W visible
28 Mar 8.7 18:17:12 10° WSW 18:30:41 67° SSE 18:38:03 10° E visible
28 Mar 7.5 20:34:16 10° W 20:43:36 81° N 20:43:36 81° N visible
29 Mar 8.2 19:17:29 10° WSW 19:29:35 89° SSE 19:34:17 23° E visible
29 Mar 9.0 21:34:23 10° W 21:38:53 32° W 21:38:53 32° W visible
30 Mar 7.6 20:18:03 10° W 20:28:22 81° N 20:29:32 64° ENE visible
30 Mar 10.3 22:34:04 10° W 22:34:08 10° W 22:34:08 10° W visible
31 Mar 8.4 19:00:57 10° W 19:14:06 87° N 19:20:10 16° E visible
31 Mar 8.5 21:18:19 10° W 21:24:46 46° W 21:24:46 46° W visible
01 Apr 8.0 20:01:43 10° W 20:13:03 82° N 20:15:22 47° E visible
01 Apr 9.9 22:18:12 10° W 22:19:58 17° W 22:19:58 17° W visible
02 Apr 8.7 18:44:22 10° W 18:58:35 85° N 19:05:58 11° E visible
02 Apr 8.0 21:02:10 10° W 21:10:34 65° W 21:10:34 65° W visible
03 Apr 8.2 19:45:18 10° W 19:57:40 84° N 20:01:09 36° E visible
03 Apr 9.6 22:02:15 10° W 22:05:45 23° W 22:05:45 23° W visible
